Location: Jihlava
(49.4000°N, 15.5830°E)
Time: 17:37:05
(UTC+02:00)

ISS - Pass Details

Date: 21 May 2021
Orbit: 419 x 422 km, 51.6° (Epoch: 24 June)

Event Time Altitude Azimuth Distance (km) Brightness Sun altitude
Rises 22:02:50 0° 269° (W) 2,307 0.6 -10.5°
Reaches altitude 10° 22:04:57 10° 274° (W) 1,437 -0.4 -10.8°
Maximum altitude 22:08:08 57° 354° (N) 465 -3.2 -11.1°
Drops below altitude 10° 22:11:13 10° 74° (ENE) 1,401 -1.3 -11.4°
Enters shadow 22:12:50 - 78° (ENE) 2,057 -0.5 -11.6°
